Regional Weather Roundup
Issued by NWS

Home | Current Version | Previous Version | Graphics & Text | Print | Product List | Glossary On
Versions: 1 2 3 4 5 6 7 8 9 10 11 12 13 14 15 16 17 18 19 20 21 22 23 24 25 26 27 28 29 30 31 32 33 34 35 36 37 38 39 40 41 42 43 44 45 46 47 48 49 50
000
ASUS43 KDTX 181901
RWRMI
MICHIGAN HOURLY REGIONAL WEATHER ROUNDUP
NATIONAL WEATHER SERVICE DETROIT/PONTIAC MI
300 PM EDT FRI APR 18 2014

NOTE: "FAIR" INDICATES FEW OR NO CLOUDS BELOW 12,000 FEET WITH NO
SIGNIFICANT WEATHER AND/OR OBSTRUCTION TO VISIBILITY.

MIZ047>049-052>055-059>063-066>070-074>076-081>083-182000-
SOUTHEAST LOWER MICHIGAN

CITY           SKY/WX    TMP DP  RH WIND       PRES   REMARKS
ADRIAN         MOSUNNY   64  41  42 W14       30.26F
ALMA           PTSUNNY   56  35  45 NW10G16   30.28F
ANN ARBOR      PTSUNNY   62  39  42 VRB5      30.26F
BAD AXE        PTSUNNY   49  34  57 CALM      30.30F
CARO           MOSUNNY   56  38  50 NW10      30.29S
DETROIT CITY   PTSUNNY   54  43  66 NE8       30.29R
DETROIT        PTSUNNY   62  43  49 W9        30.27S
FLINT          PTSUNNY   60  36  40 NW6       30.28F
GROSSE ILE     PTSUNNY   55  41  58 SE7       30.25F
HILLSDALE      MOSUNNY   63  36  37 W13       30.26F
HOWELL         PTSUNNY   58  38  47 NW13      30.27S

CITY           SKY/WX    TMP DP  RH WIND       PRES   REMARKS
JACKSON        MOSUNNY   63  35  35 NW12G18   30.26F
LAMBERTVILLE   MOSUNNY   64  41  42 W12       30.25F
LANSING        PTSUNNY   57  36  45 NW9       30.28F
LAPEER         MOCLDY    51  42  70 CALM      30.29F
MASON          MOSUNNY   58  36  43 N5G17     30.27F
MONROE         PTSUNNY   61  45  55 S3        30.25S
MT. CLEMENS    CLOUDY    50  43  77 NE10      30.29S
PONTIAC        PTSUNNY   53  44  71 NE10      30.27S HAZE
PORT HOPE        N/A     42  32  67 NE5       30.31R
PORT HURON     CLOUDY    45  36  70 N10       30.32S
TRI CITIES     MOSUNNY   55  36  48 CALM      30.30S
TROY           PTSUNNY   53  45  75 NE10      30.29S
SAGINAW HB     PTSUNNY   54  36  50 N3        30.29S
YPSILANTI      MOSUNNY   65  42  43 W9        30.26F
$$
MIZ043>046-050>051-056>058-064>065-071>073-077>080-182000-
SOUTHWEST LOWER MICHIGAN

CITY           SKY/WX    TMP DP  RH WIND       PRES   REMARKS
BATTLE CREEK   MOSUNNY   62  35  36 W13       30.28S
BENTON HARBOR  SUNNY     45  36  70 N8        30.35R
BIG RAPIDS     MOSUNNY   53  32  43 NW13G20   30.29S
COLDWATER      MOSUNNY   61  35  37 N5        30.27S
FREMONT        FAIR      53  33  46 N12       30.30S
HOLLAND        SUNNY     52  37  56 NW9       30.34R
GRAND RAPIDS   MOSUNNY   57  37  47 W14       30.30S
IONIA          FAIR      59  35  41 W10G16    30.28S
KALAMAZOO      MOSUNNY   62  37  39 NW14      30.29S
LUDINGTON      SUNNY     41  29  63 N9G17     30.37F
MARSHALL       PTSUNNY   62  36  37 W10G17    30.26F
MOUNT PLEASANT PTSUNNY   57  35  43 W13       30.28S
MUSKEGON       MOSUNNY   50  33  52 W14       30.33S
SOUTH HAVEN    SUNNY     45  35  66 N8        30.34S
$$
MIZ016>042-182000-
NORTHERN LOWER MICHIGAN

CITY           SKY/WX    TMP DP  RH WIND       PRES   REMARKS
ALPENA         PTSUNNY   45  28  51 NW10G20   30.30F
BEAVER ISLAND  CLOUDY    39  28  64 W8        30.37S WCI  34
BELLAIRE       CLOUDY    38  25  59 NW8       30.37F WCI  33
CADILLAC       MOSUNNY   44  30  58 NW10G17   30.30S
CHARLEVOIX     CLOUDY    38  28  66 W13       30.41S WCI  30
FRANKFORT      SUNNY     39  26  58 NW10G18   30.39S WCI  32
GAYLORD        CLOUDY    36  24  62 W14G22    30.33R WCI  27
GRAYLING       MOSUNNY   41  25  52 W10G18    30.33S
HARBOR SPRINGS CLOUDY    36  29  76 SW10      30.36R WCI  28
HOUGHTON LAKE  MOSUNNY   47  30  51 W9        30.32R
MANISTEE       SUNNY     39  25  56 N15G23    30.38F WCI  31
OSCODA         PTSUNNY   42  31  67 E9        30.31R
PELLSTON       CLOUDY    38  26  62 NW12      30.36R WCI  30
ROGERS CITY    PTSUNNY   38  29  69 NW14G22   30.33F WCI  30
TRAVERSE CITY  PTSUNNY   39  25  57 N12G18    30.37R WCI  32
$$
MIZ007>008-015-182000-
EASTERN UPPER MICHIGAN

CITY           SKY/WX    TMP DP  RH WIND       PRES   REMARKS
KINROSS        CLOUDY    36  30  80 NW13      30.32S WCI  27
MACKINAC ISLAN CLOUDY    35  29  79 W10G18    30.34R WCI  27
NEWBERRY       CLOUDY    34  29  80 W13       30.35R WCI  25
S. S. MARIE    CLOUDY    35  30  82 NW9       30.33R WCI  28
$$
MIZ004>006-011>014-085-182000-
CENTRAL UPPER MICHIGAN

CITY           SKY/WX    TMP DP  RH WIND       PRES   REMARKS
MANISTIQUE     CLOUDY    37  28  67 NW9G17    30.36S WCI  31
ESCANABA       PTSUNNY   43  25  49 NW9       30.36S
MENOMINEE      MOSUNNY   41  27  56 SE9       30.37S
SAWYER-GWINN   CLOUDY    34  28  80 NE7       30.37R WCI  28
$$
MIZ001>003-009>011-084-182000-
WESTERN UPPER MICHIGAN

CITY           SKY/WX    TMP DP  RH WIND       PRES   REMARKS
IRON MOUNTAIN  MOSUNNY   39  22  50 N15       30.36R WCI  31
HOUGHTON       MOSUNNY   35  25  66 NW9       30.40R WCI  28
COPPER HARBOR    N/A     35  28  75 N10       30.41S WCI  27
IRONWOOD       MOSUNNY   37  21  52 NW6       30.36S WCI  33
$$

ABBREVIATIONS USED IN REMARKS
   TC - TEMPERATURE IN CELSIUS
  WCI - WIND CHILL INDEX
   HX - HEAT INDEX
  VSB - VISIBILITY




USA.gov is the U.S. government's official web portal to all federal, state and local government web resources and services.